Location: LDNL
(36.4545°S, 141.6685°E)
Time: 11:07:50
(UTC+10:00)

Tiros 1 despin weight - Pass Details

Date: 08 August 2022
Orbit: 590 x 639 km, 48.2° (Epoch: 23 September)

Event Time Altitude Azimuth Distance (km) Brightness Sun altitude
Rises 08:35:48 0° 237° (WSW) 2,964 ? 12.2°
Reaches altitude 10° 08:38:10 10° 240° (WSW) 2,047 ? 12.6°
Maximum altitude 08:42:51 65° 321° (NW) 706 ? 13.4°
Drops below altitude 10° 08:47:27 10° 42° (NE) 2,009 ? 14.1°
Sets 08:49:45 0° 45° (NE) 2,903 ? 14.5°
